Погода в Ярком

Россия / Республика Крым     45°41′30″N   34°15′39″E
темп.,
°C
ветер,
м/с
пор.,
м/с
влажн.,
%
обл.,
%
осадки,
мм/ч
давл.,
гПа
погр.,
м
13 июня, вс
вс1300:00+19зюз3668100 0.0 1012190
03:00+18юз357099 0.0 1012150
06:00+17юз35763 0.0 1011126
09:00+23юз34516 0.0 1011694
12:00+27юз454018 0.0 10102234
15:00+27юз66336 0.0 10102240
18:00+25юз65420 0.0 10091483
21:00+19юз47681 0.0 1010139
14 июня, пн
пн1400:00+17юз37920 0.0 1010159
03:00+16ю229248 0.0 100935
06:00+16юв35867 0.0 1009136
09:00+22юв565796 0.0 1009867
12:00+26ю563898 0.0 10092019
15:00+25ююз234530 0.0 10101315
18:00+24вюв685153 0.0 1009729
21:00+19вюв487485 0.1 1010181
15 июня, вт
вт1500:00+17ю128778 0.0 101012
03:00+18с2287100 1.4 100935
06:00+20св51083100 0.5 1008296
09:00+21вюв61075100 2.6 1008758
12:00+21св71177100 2.4 1007732
15:00+26в685358 4.5 10061538
18:00+24ююз6658100 0.1 10061111
21:00+17юз37841 0.2 1008210
16 июня, ср
ср1600:00+16юз41090100 0.0 1008296
03:00+15ю1188100 0.0 100914
06:00+16ююв2585100 0.0 1009128
09:00+17юз1283100 0.1 100996
12:00+17всв1187100 1.1 1011173
15:00+20ссз4364100 1.2 1011961
18:00+20с326581 0.0 1011726
21:00+16с1183100 0.0 101111
17 июня, чт
чт1700:00+16сз228575 0.0 101127
03:00+16ссз228888 0.0 101158
06:00+17с118998 0.1 101136
09:00+20ссз216953 0.2 1012807
12:00+22с2260100 0.3 10121242
15:00+23ссв215843 0.6 10121210
18:00+22св1270100 2.3 1013512
21:00+18зсз22855 2.9 101430